Content
SEND FEEDBACK

Daily
Averages
Monthly
Summary
United Kingdom

GRAVESEND, ENGLAND


Home > Europe > United Kingdom > England
Elevation: 16 feet     Latitude: 51 26N     Longitude: 000 23E

WEATHER
 
SELECT A DAY
Number of Records: 210,054;   Date Range: 7/1/96 - 8/25/14
 
SHARE

PRINT THIS DATA

[ ← Previous Day ]
WEATHER ALMANAC - OCTOBER 8, 2013
[ Next Day → ]
[ °C ]   °F
We're sorry. There is no daily almanac available for Gravesend, England on October 8, 2013.
WEATHER BY HOUR - OCTOBER 8, 2013
[ °C ]   °F
Local TimeTemperatureDewpointHumidityBarometerVisibilityWind DirectionWind SpeedGust SpeedPrecipitationEventsConditions
12:50 AM60.8 °F55.4 °F82 %30.27 in6.2 miSW (230°)5.8 mphMostly Cloudy
1:20 AM60.8 °F55.4 °F82 %30.27 in5.6 miWSW (240°)6.9 mphScattered Clouds
1:50 AM59.0 °F55.4 °F88 %30.27 in5.6 miSW (220°)5.8 mphMostly Cloudy
2:20 AM60.8 °F57.2 °F88 %30.27 in5.0 miWSW (250°)6.9 mphMostly Cloudy
2:50 AM59.0 °F57.2 °F94 %30.24 in5.6 miWest (260°)6.9 mphMostly Cloudy
3:20 AM60.8 °F57.2 °F88 %30.24 in6.2 miWSW (250°)8.1 mphOvercast
3:50 AM59.0 °F57.2 °F94 %30.24 in5.6 miWSW (250°)8.1 mphMostly Cloudy
4:20 AM59.0 °F55.4 °F88 %30.24 in5.0 miWest (260°)10.4 mphMostly Cloudy
4:50 AM59.0 °F55.4 °F88 %30.24 in4.3 miWSW (250°)9.2 mphOvercast
5:20 AM59.0 °F55.4 °F88 %30.27 in4.3 miWest (260°)9.2 mphMostly Cloudy
5:50 AM59.0 °F55.4 °F88 %30.27 in4.3 miWSW (250°)6.9 mphMostly Cloudy
6:20 AM59.0 °F55.4 °F88 %30.27 in5.0 miWSW (250°)8.1 mphMostly Cloudy
6:50 AM59.0 °F55.4 °F88 %30.27 in6.2 miSW (220°)4.6 mphPartly Cloudy
7:20 AM59.0 °F55.4 °F88 %30.24 in6.2 miSSW (210°)6.9 mphPartly Cloudy
7:50 AM59.0 °F55.4 °F88 %30.27 in6.2 miSW (230°)5.8 mphPartly Cloudy
8:20 AM59.0 °F55.4 °F88 %30.27 in6.2 miWSW (250°)5.8 mphPartly Cloudy
8:50 AM60.8 °F57.2 °F88 %30.27 in6.2 miWest (260°)6.9 mphPartly Cloudy
9:20 AM60.8 °F55.4 °F82 %30.27 in6.2 miWSW (240°)10.4 mphPartly Cloudy
9:50 AM62.6 °F55.4 °F77 %30.27 in6.2 miWSW (250°)9.2 mphPartly Cloudy
10:20 AM62.6 °F55.4 °F77 %30.27 in6.2 miWSW (250°)9.2 mphPartly Cloudy
10:50 AM64.4 °F55.4 °F73 %30.27 in6.2 miWSW (240°)9.2 mphPartly Cloudy
11:20 AM66.2 °F55.4 °F68 %30.27 in6.2 miWSW (250°)11.5 mphPartly Cloudy
11:50 AM66.2 °F55.4 °F68 %30.27 in6.2 miWSW (250°)12.7 mphPartly Cloudy
12:20 PM68.0 °F55.4 °F64 %30.27 in6.2 miWest (270°)12.7 mphPartly Cloudy
12:50 PM68.0 °F55.4 °F64 %30.24 in6.2 miWSW (250°)12.7 mphPartly Cloudy
1:20 PM68.0 °F55.4 °F64 %30.24 in6.2 miWSW (250°)10.4 mphPartly Cloudy
1:50 PM68.0 °F55.4 °F64 %30.24 in6.2 miWest (260°)10.4 mphScattered Clouds
2:50 PM68.0 °F55.4 °F64 %30.24 in6.2 miWest (270°)11.5 mphOvercast
3:20 PM68.0 °F55.4 °F64 %30.24 in6.2 miWest (260°)10.4 mphMostly Cloudy
3:50 PM68.0 °F55.4 °F64 %30.24 in6.2 miWest (260°)9.2 mphMostly Cloudy
4:20 PM68.0 °F57.2 °F68 %30.24 in6.2 miWest (260°)8.1 mphOvercast
4:50 PM68.0 °F57.2 °F68 %30.24 in6.2 miWSW (250°)10.4 mphMostly Cloudy
5:20 PM68.0 °F57.2 °F68 %30.24 in6.2 miWest (260°)10.4 mphScattered Clouds
5:50 PM66.2 °F57.2 °F73 %30.21 in6.2 miWSW (250°)9.2 mphScattered Clouds
6:20 PM66.2 °F57.2 °F73 %30.24 in6.2 miWSW (250°)8.1 mphMostly Cloudy
6:50 PM66.2 °F57.2 °F73 %30.24 in6.2 miWSW (250°)9.2 mphScattered Clouds
7:20 PM66.2 °F57.2 °F73 %30.24 in6.2 miWSW (240°)8.1 mphMostly Cloudy
7:50 PM66.2 °F57.2 °F73 %30.24 in6.2 miWSW (250°)9.2 mphMostly Cloudy
8:20 PM66.2 °F57.2 °F73 %30.24 in6.2 miWSW (250°)10.4 mphMostly Cloudy
8:50 PM64.4 °F59.0 °F83 %30.24 in6.2 miWSW (250°)10.4 mphMostly Cloudy
9:20 PM64.4 °F59.0 °F83 %30.24 in6.2 miWSW (250°)10.4 mphScattered Clouds
9:50 PM62.6 °F57.2 °F82 %30.24 in6.2 miWest (260°)9.2 mphPartly Cloudy
10:20 PM62.6 °F59.0 °F88 %30.24 in6.2 miWSW (250°)9.2 mphPartly Cloudy
10:50 PM62.6 °F59.0 °F88 %30.24 in6.2 miWSW (250°)10.4 mphOvercast
11:20 PM62.6 °F57.2 °F82 %30.24 in6.2 miWest (260°)8.1 mphMostly Cloudy
11:50 PM62.6 °F57.2 °F82 %30.24 in6.2 miWest (280°)9.2 mphMostly Cloudy
Hourly data recorded from EGLC, located miles away from Gravesend, England







STORIES FROM OUR PARTNERS